TimeMDT,TemperatureF,Dew PointF,Humidity,Sea Level PressureIn,VisibilityMPH,Wind Direction,Wind SpeedMPH,Gust SpeedMPH,PrecipitationIn,Events,Conditions,WindDirDegrees,DateUTC
12:51 AM,66.0,57.9,75,29.93,8.0,NE,23.0,-,N/A,,Mostly Cloudy,50,2013-06-14 06:51:00
1:51 AM,64.9,59.0,81,29.88,8.0,NE,21.9,-,N/A,,Overcast,50,2013-06-14 07:51:00
2:51 AM,64.0,57.0,78,29.86,8.0,NE,13.8,-,N/A,,Mostly Cloudy,50,2013-06-14 08:51:00
3:51 AM,66.9,54.0,63,29.86,8.0,Calm,Calm,-,N/A,,Partly Cloudy,0,2013-06-14 09:51:00
4:51 AM,61.0,57.0,87,29.88,8.0,ENE,23.0,-,N/A,,Clear,60,2013-06-14 10:51:00
5:51 AM,61.0,57.9,90,29.90,8.0,ENE,19.6,-,N/A,,Partly Cloudy,60,2013-06-14 11:51:00
6:49 AM,60.8,57.2,88,30.12,6.0,ENE,25.3,-,N/A,,Scattered Clouds,60,2013-06-14 12:49:00
6:51 AM,60.1,59.0,96,29.91,6.0,ENE,25.3,-,N/A,,Mostly Cloudy,60,2013-06-14 12:51:00
7:00 AM,60.1,59.0,96,30.12,5.0,NE,25.3,-,N/A,,Mostly Cloudy,50,2013-06-14 13:00:00
7:51 AM,62.1,59.0,90,29.92,6.0,ENE,25.3,-,N/A,,Overcast,60,2013-06-14 13:51:00
8:35 AM,63.0,59.0,87,30.14,7.0,NE,26.5,-,N/A,,Mostly Cloudy,50,2013-06-14 14:35:00
8:47 AM,62.6,59.0,88,30.14,7.0,NE,25.3,-,N/A,,Mostly Cloudy,50,2013-06-14 14:47:00
8:51 AM,64.9,59.0,81,29.93,7.0,ENE,24.2,-,N/A,,Mostly Cloudy,60,2013-06-14 14:51:00
9:11 AM,64.9,59.0,81,30.15,7.0,ENE,23.0,-,N/A,,Mostly Cloudy,60,2013-06-14 15:11:00
9:51 AM,66.9,57.9,73,29.93,7.0,ENE,21.9,-,N/A,,Mostly Cloudy,70,2013-06-14 15:51:00
10:51 AM,71.1,57.0,61,29.93,7.0,ENE,23.0,-,N/A,,Clear,70,2013-06-14 16:51:00
11:51 AM,73.9,55.0,52,29.91,8.0,East,18.4,25.3,N/A,,Mostly Cloudy,80,2013-06-14 17:51:00
12:51 PM,75.9,55.9,50,29.90,8.0,East,16.1,21.9,N/A,,Mostly Cloudy,80,2013-06-14 18:51:00
1:51 PM,78.1,55.9,46,29.88,8.0,ENE,15.0,24.2,N/A,,Scattered Clouds,70,2013-06-14 19:51:00
2:51 PM,79.0,55.0,44,29.86,8.0,East,15.0,-,N/A,,Mostly Cloudy,90,2013-06-14 20:51:00
3:51 PM,80.1,55.0,42,29.83,8.0,East,10.4,18.4,N/A,,Mostly Cloudy,100,2013-06-14 21:51:00
4:51 PM,80.1,55.0,42,29.83,8.0,East,12.7,-,N/A,,Mostly Cloudy,80,2013-06-14 22:51:00
5:51 PM,75.0,59.0,57,29.83,7.0,East,23.0,31.1,N/A,,Overcast,90,2013-06-14 23:51:00
6:51 PM,70.0,61.0,73,29.88,8.0,East,21.9,-,0.03,,Mostly Cloudy,80,2013-06-15 00:51:00
7:51 PM,70.0,60.1,71,29.89,7.0,ENE,19.6,-,N/A,,Scattered Clouds,70,2013-06-15 01:51:00
8:51 PM,69.1,59.0,70,29.93,9.0,Variable,6.9,-,N/A,,Partly Cloudy,0,2013-06-15 02:51:00
9:51 PM,68.0,61.0,78,29.97,10.0,NE,17.3,-,0.04,Rain,Light Rain,40,2013-06-15 03:51:00
10:51 PM,64.9,60.1,84,29.84,10.0,ENE,38.0,-,0.02,Rain,Light Rain,60,2013-06-15 04:51:00
11:51 PM,66.0,60.1,81,29.91,9.0,NE,16.1,-,0.00,,Clear,40,2013-06-15 05:51:00